Stations météo

réclame
Mon MeteoGroup
Pembrey Sands, Grande-Bretagne (3605): Température de l'air & dewpoint: 15.01.2018 13:00:00 - 21.01.2018 13:00:00 (GMT)Pembrey Sands, Grande-Bretagne (3605): Vitesse du vent & gusts: 15.01.2018 13:00:00 - 21.01.2018 13:00:00 (GMT)Pembrey Sands, Grande-Bretagne (3605): Direction du vent: 15.01.2018 13:00:00 - 21.01.2018 13:00:00 (GMT)Pembrey Sands, Grande-Bretagne (3605): reduced air pressure: 15.01.2018 13:00:00 - 21.01.2018 13:00:00 (GMT)Pembrey Sands, Grande-Bretagne (3605): visibility: 15.01.2018 13:00:00 - 21.01.2018 13:00:00 (GMT)Pembrey Sands, Grande-Bretagne (3605): Quantités de précipitations: 15.01.2018 13:00:00 - 21.01.2018 13:00:00 (GMT)
Date & Time tt [°C] td [°C] ff [km/h] ff [knt] fx [km/h] fx [knt] dd ppp [hPa] vv [km] rr [mm]
21.01.2018 13:00:00 - - - - - - - - - -
21.01.2018 12:00:00 8,0 7,8 11 6 - - SE 1008,6 2,5 5,0
21.01.2018 11:00:00 6,5 6,2 16 9 - - ESE 1009,0 4,5 2,4
21.01.2018 10:00:00 5,5 5,2 21 11 - - ESE 1009,2 4,8 1,8
21.01.2018 09:00:00 4,9 4,5 26 14 - - ESE 1009,1 2,9 1,6
21.01.2018 08:00:00 4,2 3,8 22 12 - - E 1009,8 3,4 2,4
21.01.2018 07:00:00 3,9 3,5 24 13 - - ESE 1010,4 2,2 0,6
21.01.2018 06:00:00 3,9 3,3 18 10 - - ESE 1011,6 2,2 0,4
21.01.2018 05:00:00 4,0 3,2 18 10 - - ESE 1012,3 3,5 0,0
21.01.2018 04:00:00 4,0 3,2 16 9 - - SE 1012,3 7 0,0
21.01.2018 03:00:00 4,2 3,3 15 8 - - ESE 1012,9 13 0,2
21.01.2018 02:00:00 3,8 2,5 9 5 - - E 1013,1 22 0,0
21.01.2018 01:00:00 3,7 2,3 8 4 - - E 1013,1 24 0,0
21.01.2018 00:00:00 4,0 2,6 8 4 - - E 1012,4 27 0,0
20.01.2018 23:00:00 3,8 2,5 8 4 - - N 1011,7 30 0,0
20.01.2018 22:00:00 3,3 1,6 9 5 - - N 1010,6 30 0,0
20.01.2018 21:00:00 5,2 3,4 13 7 - - NW 1009,8 9 0,0
20.01.2018 20:00:00 4,9 3,7 13 7 - - NNW 1008,3 21 0,0
20.01.2018 19:00:00 5,4 3,9 28 15 - - NW 1006,1 20 0,0
20.01.2018 18:00:00 7,4 5,2 22 12 - - NNW 1004,9 50 0,0
20.01.2018 17:00:00 8,3 5,8 31 17 65 35 NW 1002,7 60 0,0
20.01.2018 16:00:00 9,9 5,8 52 28 65 35 NW 1000,1 50 0,2
20.01.2018 15:00:00 9,9 8,6 39 21 54 29 WNW 998,8 12 0,2
20.01.2018 14:00:00 10,5 9,5 42 23 52 28 WNW 997,8 26 0,0
20.01.2018 13:00:00 8,1 7,8 9 5 - - S 997,3 4,1 1,0
20.01.2018 12:00:00 7,5 7,1 24 13 - - S 998,0 3,1 0,6
20.01.2018 11:00:00 6,3 5,9 16 9 - - SSE 998,8 10 0,0
20.01.2018 10:00:00 5,5 5,1 5 3 - - SE 999,3 13 0,0
20.01.2018 09:00:00 4,8 4,4 5 3 - - E 999,2 3,2 0,0
20.01.2018 08:00:00 4,7 4,3 11 6 - - E 998,9 5 0,0
20.01.2018 07:00:00 4,7 4,3 13 7 - - ESE 998,9 2,7 0,2
20.01.2018 06:00:00 5,0 4,6 13 7 - - E 999,8 3,6 0,2
20.01.2018 05:00:00 4,8 4,3 13 7 - - E 1000,6 7 0,2
20.01.2018 04:00:00 4,5 4,0 11 6 - - E 1001,8 10 0,2
20.01.2018 03:00:00 4,5 3,8 11 6 - - E 1003,2 13 0,4
20.01.2018 02:00:00 5,1 3,6 9 5 - - SSW 1005,1 12 0,6
20.01.2018 01:00:00 5,7 3,8 26 14 - - WSW 1007,0 8 0,2
20.01.2018 00:00:00 6,5 2,9 16 9 - - SW 1008,0 17 0,0
19.01.2018 23:00:00 6,9 2,7 22 12 - - W 1009,0 12 0,0
19.01.2018 22:00:00 6,9 2,6 28 15 - - W 1009,5 15 0,0
19.01.2018 21:00:00 6,5 2,4 21 11 - - W 1010,0 11 0,0
19.01.2018 20:00:00 6,5 2,5 24 13 - - W 1010,5 9 0,0
19.01.2018 19:00:00 6,5 2,0 26 14 - - W 1010,3 14 0,0
19.01.2018 18:00:00 6,2 2,3 26 14 - - W 1010,4 14 0,0
19.01.2018 17:00:00 6,2 2,2 29 16 50 27 W 1010,5 15 0,0
19.01.2018 16:00:00 6,5 2,0 31 17 52 28 W 1010,4 24 0,0
19.01.2018 15:00:00 6,3 2,3 42 23 59 32 W 1010,2 28 0,0
19.01.2018 14:00:00 6,5 2,3 35 19 72 39 W 1010,5 23 0,0
19.01.2018 13:00:00 7,0 1,5 48 26 68 37 W 1010,5 26 0,0
19.01.2018 12:00:00 5,7 2,7 28 15 57 31 W 1010,6 27 0,6
19.01.2018 11:00:00 4,5 1,2 48 26 67 36 W 1011,5 5 0,2
19.01.2018 10:00:00 5,7 1,4 26 14 - - W 1010,6 11 0,0
19.01.2018 09:00:00 5,1 1,4 18 10 - - W 1010,3 11 0,0
19.01.2018 08:00:00 5,0 2,0 21 11 - - WNW 1010,0 7 0,0
19.01.2018 07:00:00 4,5 1,2 18 10 - - WNW 1009,9 12 0,0
19.01.2018 06:00:00 3,2 0,7 11 6 - - NW 1009,7 11 0,0
19.01.2018 05:00:00 3,8 0,5 15 8 - - NW 1009,6 17 0,0
19.01.2018 04:00:00 4,2 1,7 22 12 - - W 1009,3 24 0,0
19.01.2018 03:00:00 4,0 0,6 18 10 - - WNW 1009,0 28 0,0
19.01.2018 02:00:00 4,2 1,3 22 12 - - W 1008,8 28 0,0
19.01.2018 01:00:00 4,1 1,4 18 10 - - WNW 1008,7 25 0,0
19.01.2018 00:00:00 5,2 1,7 22 12 - - W 1008,6 22 0,0
18.01.2018 23:00:00 5,5 1,6 29 16 - - W 1008,5 17 0,0
18.01.2018 22:00:00 5,0 0,8 18 10 - - WNW 1008,2 14 0,0
18.01.2018 21:00:00 5,4 1,2 24 13 - - WNW 1008,1 10 0,0
18.01.2018 20:00:00 5,8 1,6 35 19 46 25 W 1007,6 11 0,0
18.01.2018 19:00:00 5,8 1,7 31 17 - - WNW 1007,1 10 0,0
18.01.2018 18:00:00 6,0 1,8 28 15 - - W 1006,9 8 0,0
18.01.2018 17:00:00 6,0 1,4 28 15 55 30 WNW 1006,2 15 0,0
18.01.2018 16:00:00 6,9 1,5 41 22 59 32 WNW 1005,3 30 0,0
18.01.2018 15:00:00 7,5 2,4 44 24 55 30 W 1004,2 25 0,0
18.01.2018 14:00:00 7,9 2,1 46 25 61 33 W 1004,2 30 0,0
18.01.2018 13:00:00 8,6 3,6 46 25 63 34 W 1004,0 27 0,0
18.01.2018 12:00:00 8,1 3,9 42 23 54 29 W 1004,0 26 0,0
18.01.2018 11:00:00 7,9 4,6 35 19 - - W 1003,7 22 0,0
18.01.2018 10:00:00 7,3 4,7 24 13 - - W 1003,2 7 0,0
18.01.2018 09:00:00 6,9 4,3 26 14 52 28 W 1002,8 7 0,0
18.01.2018 08:00:00 7,2 3,8 39 21 55 30 W 1002,4 6 0,0
18.01.2018 07:00:00 7,3 3,9 41 22 52 28 W 1001,6 6 0,0
18.01.2018 06:00:00 7,4 3,4 46 25 63 34 W 1001,0 9 0,0
18.01.2018 05:00:00 7,6 3,1 55 30 78 42 W 1000,0 15 0,0
18.01.2018 04:00:00 8,0 3,8 63 34 89 48 W 998,8 18 0,0
18.01.2018 03:00:00 9,4 4,8 68 37 117 63 W 996,9 14 0,0
18.01.2018 02:00:00 10,8 6,9 78 42 113 61 W 995,0 7 0,0
18.01.2018 01:00:00 10,9 8,2 76 41 104 56 W 994,6 7 0,0
18.01.2018 00:00:00 10,3 9,5 72 39 93 50 WSW 995,1 6 0,2
17.01.2018 23:00:00 10,3 9,4 78 42 94 51 WSW 996,5 6 0,2
17.01.2018 22:00:00 9,4 8,8 72 39 87 47 SW 997,6 2,0 1,0
17.01.2018 21:00:00 8,1 7,7 55 30 70 38 SSW 1000,2 2,6 2,0
17.01.2018 20:00:00 7,5 6,1 50 27 67 36 SW 1003,7 5 1,8
17.01.2018 19:00:00 7,2 5,4 37 20 52 28 WSW 1006,5 4,2 1,0
17.01.2018 18:00:00 7,7 5,0 34 18 48 26 WSW 1008,4 5 0,0
17.01.2018 17:00:00 7,5 3,6 28 15 - - WSW 1009,1 7 0,0
17.01.2018 16:00:00 7,4 3,0 28 15 - - W 1010,4 10 0,0
17.01.2018 15:00:00 7,3 2,5 39 21 54 29 W 1010,7 19 0,0
17.01.2018 14:00:00 7,3 2,7 42 23 61 33 W 1011,2 20 0,0
17.01.2018 13:00:00 7,0 2,1 48 26 67 36 W 1011,4 21 0,0
17.01.2018 12:00:00 7,2 2,2 52 28 67 36 W 1011,4 20 0,0
17.01.2018 11:00:00 6,6 2,3 44 24 63 34 W 1010,9 18 0,0
17.01.2018 10:00:00 6,4 1,5 48 26 63 34 W 1010,2 20 0,0
17.01.2018 09:00:00 6,4 1,7 50 27 67 36 W 1009,3 12 0,0
17.01.2018 08:00:00 6,1 1,6 44 24 59 32 W 1008,4 8 0,0
17.01.2018 07:00:00 5,7 1,1 41 22 63 34 W 1007,5 7 0,0
17.01.2018 06:00:00 5,5 0,9 57 31 80 43 WNW 1006,4 9 0,0
17.01.2018 05:00:00 5,5 0,1 59 32 81 44 WNW 1005,3 14 0,0
17.01.2018 04:00:00 5,0 0,2 54 29 80 43 W 1004,0 17 0,0
17.01.2018 03:00:00 4,7 -0,3 61 33 76 41 W 1002,5 21 0,2
17.01.2018 02:00:00 4,3 0,6 61 33 78 42 W 1001,3 22 0,0
17.01.2018 01:00:00 4,1 -0,4 67 36 91 49 W 1000,5 30 0,0
17.01.2018 00:00:00 4,2 -0,5 67 36 89 48 W 999,1 24 0,0
16.01.2018 23:00:00 4,6 0,2 55 30 76 41 W 998,7 24 0,4
16.01.2018 22:00:00 3,8 0,4 48 26 80 43 W 998,1 30 0,0
16.01.2018 21:00:00 3,9 0,6 48 26 67 36 W 997,1 17 0,0
16.01.2018 20:00:00 3,9 1,4 50 27 76 41 W 996,7 12 0,8
16.01.2018 19:00:00 5,3 -0,2 54 29 65 35 W 996,4 10 0,0
16.01.2018 18:00:00 5,4 1,3 52 28 72 39 W 996,5 10 0,0
16.01.2018 17:00:00 5,1 2,5 42 23 83 45 W 996,2 9 0,8
16.01.2018 16:00:00 5,5 2,2 42 23 76 41 W 996,5 14 0,0
16.01.2018 15:00:00 6,2 2,2 42 23 65 35 W 996,3 17 0,2
16.01.2018 14:00:00 5,9 2,1 50 27 72 39 W 997,1 11 0,0
16.01.2018 13:00:00 6,8 1,8 41 22 76 41 W 997,8 20 0,0
16.01.2018 12:00:00 6,4 1,5 59 32 78 42 W 998,6 19 0,0
16.01.2018 11:00:00 6,8 2,0 44 24 59 32 W 998,8 22 0,0
16.01.2018 10:00:00 5,6 0,9 46 25 72 39 W 998,9 20 0,0
16.01.2018 09:00:00 6,3 1,8 46 25 59 32 W 998,2 12 0,0
16.01.2018 08:00:00 6,1 1,8 46 25 59 32 W 997,8 11 0,0
16.01.2018 07:00:00 5,9 3,0 44 24 85 46 W 997,2 9 0,0
16.01.2018 06:00:00 5,9 3,7 42 23 83 45 W 996,7 7 0,2
16.01.2018 05:00:00 6,8 1,8 52 28 63 34 W 996,4 12 0,0
16.01.2018 04:00:00 6,7 2,2 39 21 70 38 W 996,3 11 0,0
16.01.2018 03:00:00 6,5 3,2 41 22 70 38 W 996,2 19 0,6
16.01.2018 02:00:00 6,3 4,2 35 19 67 36 WNW 995,5 29 0,0
16.01.2018 01:00:00 7,5 4,6 39 21 65 35 W 995,4 17 0,0
16.01.2018 00:00:00 7,4 5,0 42 23 70 38 W 995,9 21 0,6
15.01.2018 23:00:00 6,9 5,3 39 21 67 36 W 995,9 21 1,0
15.01.2018 22:00:00 7,4 5,1 41 22 54 29 W 995,9 8 0,0
15.01.2018 21:00:00 7,7 5,2 28 15 48 26 W 996,2 9 0,2
15.01.2018 20:00:00 7,2 4,9 31 17 50 27 W 996,5 9 0,2
15.01.2018 19:00:00 7,5 5,6 39 21 54 29 W 996,4 3,9 0,4
15.01.2018 18:00:00 7,4 5,2 22 12 - - WNW 996,8 7 0,2
15.01.2018 17:00:00 8,4 5,6 34 18 52 28 W 996,8 8 0,0
15.01.2018 16:00:00 8,2 5,5 26 14 - - W 996,4 8 0,0
15.01.2018 15:00:00 8,1 6,2 37 20 61 33 W 996,5 12 0,4
15.01.2018 14:00:00 9,3 6,0 39 21 63 34 W 996,1 30 0,0
15.01.2018 13:00:00 9,1 7,3 28 15 67 36 W 996,2 45 0,4

tt = Température de l'air
td = dewpoint
ff = Vitesse du vent
fx = gusts
dd = Direction du vent
ppp = reduced air pressure
vv = visibility
rr = Quantités de précipitations

stations d'obs. à proximité